Simultaneous Nadir Overpasses (SNOs) Predictions

Prediction of SNOs between AQUA and METOP-B Satellite Orbit:

Table of predicted SNOs for the next 14.0 days since TLE Epoch: 7/13/2024
Index Date (AQUA) Time (AQUA) Lat,Lon (AQUA) SZA (AQUA ) Date (METOP-B) Time (METOP-B) Lat,Lon (METOP-B) SZA (METOP-B ) Distance(km) Time Diff (sec)
1 07/15/2024 08:23:10 75.96, 51.72 54.50 07/15/2024 08:22:31 75.96, 51.73 54.50 0.98 39
2 07/15/2024 09:12:32 -76.00,-140.74 125.46 07/15/2024 09:13:12 -76.00,-140.82 125.46 2.15 40
3 07/17/2024 23:44:02 -75.98, 1.50 125.04 07/17/2024 23:43:36 -75.99, 1.56 125.02 2.17 26
4 07/18/2024 00:33:24 76.02, 169.03 55.02 07/18/2024 00:34:14 76.03, 169.02 55.03 1.21 50
5 07/20/2024 15:04:53 76.02, -48.78 55.50 07/20/2024 15:04:38 76.02, -48.65 55.50 3.49 15
6 07/20/2024 15:54:15 -76.05, 118.79 124.47 07/20/2024 15:55:19 -76.06, 118.82 124.46 2.07 64
7 07/23/2024 05:36:18 75.88, 93.84 55.87 07/23/2024 05:35:06 75.81, 93.04 55.82 23.06 72
8 07/23/2024 06:25:42 -76.00, -98.89 124.00 07/23/2024 06:25:44 -75.99, -99.02 124.00 3.71 2
9 07/23/2024 07:15:08 76.20, 68.14 56.23 07/23/2024 07:16:19 76.21, 69.05 56.22 24.34 71
10 07/25/2024 20:57:08 -75.97, 43.40 123.47 07/25/2024 20:56:08 -75.96, 43.25 123.47 4.05 60
11 07/25/2024 21:46:31 76.03,-149.12 56.60 07/25/2024 21:46:46 76.04,-149.15 56.61 1.77 15



Historial Predications of SNOs between AQUA and METOP-B
